world map with ESU marked

ESU - Airport

This information may not be accurate or current and is not valid for navigation or flight planning. No warranty of fitness for any purpose is made or implied.

flag of Morocco

Donate via PayPal

Additional information is available on the NEW Great Circle Mapper

Location
City:  Essaouira, Safi, Morocco
Near (Alt.):Mogador
Name:Mogador Airport
ICAO / IATA:GMMI / ESU

Details
Type:Airport (Aerodrome, Airfield)
Latitude:31°23'51"N (31.397500)
Longitude:9°40'54"W (-9.681666)
Datum:WGS 1984
Elevation:384 ft (117 m)
Runways:1
Longest:6890 × 148 ft (2100 × 45 m)

Time
Timezone:UTC+0 (DST+3)
Local Time:

Weather
METAR:GMMI  041400Z 30006KT 8000 NSC 26/03 Q1021 NOSIG
TAF:GMMI  041100Z 0412/0518 VRB02KT 8000 NSC

Related Locations
Nearby:
Farthest:NLK: 12220 mi / 19667 km
Norfolk Island, NF

Find:

   beyond  
but within

Other Information
Maps:
Sources:

  


 


Great Circle Mapper   Great Circle Mapper
Great Circle Mapper FAQ   Great Circle Mapper FAQ
  Karl's Home Page
KLSē   KLSē Home
   GC on Facebook
Airlines of the World   Airlines of the World
Donate via PayPal


Copyright © 2004-2019, Karl L. Swartz. All rights reserved.
All trademarks mentioned herein belong to their respective owners.

Please see credits for attribution and copyright information.

Karl Swartz <karl@kls2.com>
  Powered by FreeBSD
Valid HTML 4.01!
Labeled with ICRA
hCard Microformat
Geo Microformat